User: anonymous   Login
Location: Unspecified
(0.0000°N, 0.0000°E)
Time: 20:11:22
(UTC+00:00)
Language:

deb Explorer IX - Orbit

View from above orbital plane
View from above orbital plane
View from above satellite
View from above satellite

Ground track
Ground track

The orbit data is extracted from the following two-line orbital elements,

1    85U 61004C   20272.90512782 +.00000722 +00000-0 +17123-3 0  9999
2    85 038.7708 213.1201 0393078 110.4551 253.8845 14.21076829945817
Epoch (UTC): 28 September 2020 21:43:23
Eccentricity: 0.0393078
inclination: 38.7708°
perigee height: 539 km
apogee height: 1105 km
right ascension of ascending node: 213.1201°
argument of perigee: 110.4551°
revolutions per day: 14.21076829
mean anomaly at epoch: 253.8845°
orbit number at epoch: 94581

The dashed part of the orbit path shows where the satellite is in the earth's shadow,  

DLR